{"data":{"norad_id":63426,"intl_designator":"2025-065AD","name":"STARLINK-33615","alt_names":[],"object_type":"PAYLOAD","status":"ACTIVE","operator":null,"country":"US","launch_date":"2025-03-31","launch_site_code":"AFETR","launch_vehicle":null,"mission":null,"orbit_class":"UNKNOWN","rcs_meters":null,"size_class":null,"mass_kg":null,"dimensions":null,"purposes":["comms"],"wikipedia_slug":null,"has_3d_model":false,"image_url":null,"decayed_at":null,"tle_current":{"epoch":"2026-05-24T23:31:53.091840Z","epoch_age_seconds":66989,"freshness":"FRESH","line1":"1 63426U 25065AD  26144.98047560  .00015473  00000+0  57032-3 0  9994","line2":"2 63426  43.0001  36.5124 0000823 253.0264 107.0498 15.27596520 64503","mean_motion":15.2759652,"eccentricity":8.23e-5,"inclination_deg":43.0001,"raan_deg":36.5124,"arg_perigee_deg":253.0264,"mean_anomaly_deg":107.0498,"bstar":0.00057032,"rev_number":6450,"period_min":94.265729277781,"perigee_km":482.43495811779,"apogee_km":483.56430120703,"semimajor_km":6861.1366296624,"source":"CELESTRAK","updated_at":"2026-05-25T13:38:19.996282Z"}}}